Location: Carthage
(33.8834°N, 106.6595°W)
Time: 03:28:32
(UTC+00:00)

Cosmos 2322 Rocket - Pass Details

Date: 25 May 2026
Orbit: 831 x 850 km, 71.0° (Epoch: 9 June)

Event Time Altitude Azimuth Distance (km) Brightness Sun altitude
Rises 02:48:48 0° 344° (NNW) 3,409 6.2 -8.3°
Reaches altitude 10° 02:51:19 10° 349° (N) 2,473 5.3 -8.7°
Maximum altitude 02:56:53 54° 66° (ENE) 1,018 2.5 -9.7°
Enters shadow 03:02:04 12° 143° (SE) 2,335 3.9 -10.6°
